[[{"header":{"parameterUnit":"m.s-1","parameterCategory":1,"la1":30.2991,"la2":30.254,"lo1":-89.0895,"lo2":-89.0444,"dy":0.0017,"dx":0.0017,"nx":28,"ny":28,"refTime":"2023-04-08T21:00:00:Z","depth":0,"parameterNumber":2,"parameterNumberName":"U-component_of_WINDS"},"data":[0,0,0,0,0,0,0,0,0,0,0,0,0,0,0,0,0,0,0,0,0,0,0,0,0,0,0,0,0,0,0,0,0,0,0,0,0,0,0,0,0,0,0,0,0,0,0,0,0,0,0,0,0,0,0,0,0,0,-5.6153,-5.6153,0,-5.6165,-5.6165,-5.6165,-5.6021,-5.6017,-5.6013,-5.6009,-5.602,-5.6024,-5.6028,0,0,0,0,0,0,0,0,0,0,0,0,0,-5.6004,-5.6008,-5.6153,-5.6153,-5.6153,-5.6165,-5.6165,-5.6165,-5.6022,-5.6017,-5.6012,-5.6008,-5.6019,-5.6023,-5.6028,0,0,0,0,0,0,0,0,0,0,0,0,0,-5.6048,-5.6009,-5.6153,-5.6083,-5.6077,-5.6165,-5.6165,-5.6165,-5.6023,-5.6017,-5.6011,-5.6005,-5.6017,-5.6023,-5.6029,-5.6183,0,0,-5.6047,-5.6049,0,0,0,0,0,0,0,0,-5.6046,-5.6053,-5.6093,-5.6088,-5.6081,-5.6085,-5.6116,-5.6171,-5.6024,-5.6043,-5.6009,-5.6002,-5.6046,-5.6049,-5.6065,-5.6184,-5.6184,-5.6047,-5.6051,-5.6053,-5.6055,0,0,0,0,0,0,0,-5.6043,-5.6052,-5.6157,-5.6094,-5.6087,-5.6051,-5.605,-5.6126,-5.6078,-5.6041,-5.6031,-5.6034,-5.6042,-5.6059,-5.6064,-5.6184,-5.6047,-5.6052,-5.6056,-5.6058,-5.6431,-5.6437,0,0,0,0,0,0,-5.6049,-5.6051,-5.6157,-5.6158,-5.6049,-5.6058,-5.6058,-5.609,-5.6076,-5.6069,-5.6039,-5.6027,-5.6052,-5.6057,-5.6064,-5.6243,-5.6053,-5.6059,-5.6062,-5.6424,-5.6432,-5.6439,0,0,0,0,0,0,-5.6047,-5.606,-5.6157,-5.6101,-5.6111,-5.6067,-5.6104,-5.6093,-5.611,-5.6075,-5.6065,-5.6066,-5.6048,-5.6055,-5.6155,-5.6242,-5.6061,-5.6067,-5.6417,-5.6427,-5.6436,-5.6605,0,0,0,0,0,0,-5.6043,-5.606,-5.6119,-5.6104,-5.6114,-5.6249,-5.611,-5.6098,-5.6121,-5.6106,-5.6098,-5.609,-5.6043,-5.6147,-5.6161,-5.6247,-5.6071,-5.6409,-5.6421,-5.6433,-5.6591,-5.6619,-5.6643,0,0,0,0,0,-5.6038,-5.6166,-5.6123,-5.6136,-5.6187,-5.6254,-5.626,-5.6204,-5.6129,-5.6187,-5.6164,-5.6091,-5.623,-5.6158,-5.6172,-5.6262,-5.6403,-5.6418,-5.6432,-5.658,-5.6614,-5.6642,0,0,0,0,0,0,-5.6191,-5.6162,-5.6114,-5.6241,-5.6251,-5.6229,-5.6301,-5.6241,-5.6272,-5.6257,-5.6185,-5.6184,-5.6296,-5.6288,-5.6208,-5.6411,-5.6303,-5.6321,-5.6411,-5.6443,-5.6468,-5.6467,-5.6076,0,0,0,0,0,-5.624,-5.6297,-5.6269,-5.6383,-5.6391,-5.6346,-5.6373,-5.6329,-5.6336,-5.6339,-5.6324,-5.6333,-5.6379,-5.6411,-5.6451,-5.659,-5.6586,-5.6658,-5.6684,-5.6705,-5.6722,-5.6794,-5.6826,-5.6486,-5.6486,-5.6486,0,0,-5.634,-5.6332,-5.6372,-5.6413,-5.6416,-5.6476,-5.635,-5.6419,-5.6463,-5.6349,-5.6442,-5.6432,-5.6437,-5.6558,-5.661,-5.6555,-5.6815,-5.6724,-5.6741,-5.6745,-5.6812,-5.6845,-5.6873,-5.6496,-5.6494,-5.6492,0,0,-5.6554,-5.6554,-5.6649,-5.6655,-5.6661,-5.663,-5.6654,-5.6641,-5.663,-5.6722,-5.6639,-5.669,-5.677,-5.6778,-5.6792,-5.7011,-5.6944,-5.7026,-5.716,-5.7232,-5.7259,-5.7282,-5.7359,-5.7388,-5.7042,-5.7043,-5.7043,0,-5.6678,-5.6767,-5.6705,-5.6781,-5.6801,-5.6702,-5.6798,-5.6806,-5.6825,-5.6841,-5.678,-5.6879,-5.6876,-5.6996,-5.705,-5.7065,-5.7089,-5.7026,-5.726,-5.7283,-5.7303,-5.7377,-5.7406,-5.7052,-5.7051,-5.705,-5.7049,0,-5.6918,-5.6981,-5.7057,-5.7079,-5.7108,-5.7193,-5.7144,-5.7181,-5.7135,-5.7111,-5.7206,-5.72,-5.7237,-5.7262,-5.7218,-5.7377,-5.7343,-5.7272,-5.7163,-5.7347,-5.7414,-5.7442,-5.7067,-5.7063,-5.706,-5.7058,0,0,-5.7228,-5.7216,-5.7244,-5.7253,-5.7253,-5.73,-5.7381,-5.7418,-5.7451,-5.7467,-5.7533,-5.7604,-5.7538,-5.7555,-5.7511,-5.7574,-5.7747,-5.7495,-5.7494,-5.7542,-5.7922,-5.7974,-5.8008,-5.7703,-5.7708,-5.7713,-5.7921,0,-5.7436,-5.7573,-5.7521,-5.7662,-5.7719,-5.7626,-5.7696,-5.7704,-5.7684,-5.7729,-5.7706,-5.7757,-5.7668,-5.7677,-5.7736,-5.7714,-5.7822,-5.7698,-5.7763,-5.7766,-5.7764,-5.8043,-5.8099,-5.8296,-5.7947,-5.7951,-5.7955,0,-5.7696,-5.7724,-5.7872,-5.7862,-5.7884,-5.7948,-5.7978,-5.8023,-5.8029,-5.801,-5.803,-5.7972,-5.8049,-5.7942,-5.8048,-5.7964,-5.7988,-5.7981,-5.7988,-5.7991,-5.7871,-5.8053,-5.8357,-5.8387,-5.7996,-5.7992,-5.7989,0,-5.7907,-5.7981,-5.8079,-5.809,-5.8081,-5.8128,-5.8127,-5.8128,-5.8154,-5.818,-5.8196,-5.8231,-5.825,-5.8278,-5.8231,-5.8157,-5.8344,-5.8232,-5.8329,-5.8331,-5.8372,-5.837,-5.8684,-5.8389,-5.8389,-5.8388,-5.8388,0,-5.8143,-5.8237,-5.8174,-5.8234,-5.8336,-5.8275,-5.8378,-5.8366,-5.8368,-5.8423,-5.8345,-5.8399,-5.8334,-5.8382,-5.8345,-5.8438,-5.8448,-5.8434,-5.8423,-5.8441,-5.8442,-5.8454,-5.8439,-5.8396,-5.8394,-5.8393,-5.8391,0,-5.8395,-5.8357,-5.8457,-5.8441,-5.844,-5.8516,-5.8501,-5.8556,-5.8531,-5.8603,-5.8616,-5.8577,-5.8629,-5.8585,-5.8635,-5.861,-5.8734,-5.8704,-5.8732,-5.8724,-5.8824,-5.8815,-5.9155,-5.9197,-5.8877,-5.888,-5.8882,0,-5.8548,-5.8618,-5.8611,-5.8643,-5.8647,-5.87,-5.8726,-5.8669,-5.8699,-5.8713,-5.8766,-5.8812,-5.8845,-5.8933,-5.8908,-5.8946,-5.8916,-5.9033,-5.8921,-5.8937,-5.8917,-5.8913,-5.8919,-5.9055,-5.9059,-5.9062,-5.9064,0,-5.8825,-5.8802,-5.8844,-5.8879,-5.8913,-5.8938,-5.8956,-5.8987,-5.8929,-5.8967,-5.902,-5.9046,-5.9098,-5.9144,-5.9174,-5.9171,-5.9109,-5.91,-5.9125,-5.9143,-5.9156,-5.915,-5.8793,-5.9092,-5.9089,-5.9087,-5.9086,-5.9085,-5.9031,-5.9089,-5.9093,-5.9142,-5.915,-5.9169,-5.922,-5.9202,-5.9245,-5.9283,-5.9247,-5.9311,-5.9316,-5.935,-5.9356,-5.9404,-5.9356,-5.9391,-5.94,-5.941,-5.9424,-5.915,-5.941,-5.9409,-5.9408,-5.9407,-5.9407,0,-5.9303,-5.9301,-5.9347,-5.9375,-5.9414,-5.9353,-5.937,-5.9406,-5.9464,-5.9474,-5.9509,-5.957,-5.9614,-5.9594,-5.9633,-5.9676,-5.9648,-5.9688,-5.9684,-5.9684,-5.9465,-5.944,-5.971,-5.971,-5.971,-5.971,-5.971,-5.971,-5.9448,-5.9543,-5.9522,-5.962,-5.9617,-5.968,-5.9695,-5.9712,-5.972,-5.9792,-5.9829,-5.9816,-5.9814,-5.9852,-5.9891,-5.9883,-5.9901,-5.9951,-5.9934,-5.973,-5.97,-5.9671,-5.9647,-5.9956,-5.9956,-6.0148,-6.015,-6.0152]},{"header":{"parameterUnit":"m.s-1","parameterCategory":1,"la1":30.2991,"la2":30.254,"lo1":-89.0895,"lo2":-89.0444,"dy":0.0017,"dx":0.0017,"nx":28,"ny":28,"refTime":"2023-04-08T21:00:00:Z","depth":0,"parameterNumber":3,"parameterNumberName":"V-component_of_WINDS"},"data":[0,0,0,0,0,0,0,0,0,0,0,0,0,0,0,0,0,0,0,0,0,0,0,0,0,0,0,0,0,0,0,0,0,0,0,0,0,0,0,0,0,0,0,0,0,0,0,0,0,0,0,0,0,0,0,0,0,0,-4.1521,-4.1522,0,-4.1544,-4.1544,-4.1544,-4.1466,-4.1463,-4.1461,-4.1459,-4.148,-4.1483,-4.1486,0,0,0,0,0,0,0,0,0,0,0,0,0,-4.1409,-4.1411,-4.1521,-4.1522,-4.1522,-4.1544,-4.1544,-4.1544,-4.1466,-4.1463,-4.146,-4.1458,-4.1479,-4.1483,-4.1486,0,0,0,0,0,0,0,0,0,0,0,0,0,-4.1447,-4.1412,-4.1521,-4.1486,-4.1483,-4.1544,-4.1544,-4.1544,-4.1467,-4.1463,-4.146,-4.1456,-4.1478,-4.1482,-4.1486,-4.1583,0,0,-4.1499,-4.1501,0,0,0,0,0,0,0,0,-4.1445,-4.1451,-4.1491,-4.1488,-4.1485,-4.1498,-4.1512,-4.1557,-4.1467,-4.1473,-4.1459,-4.1455,-4.1489,-4.1492,-4.1504,-4.1584,-4.1585,-4.15,-4.1502,-4.1504,-4.1505,0,0,0,0,0,0,0,-4.1443,-4.145,-4.153,-4.1491,-4.1488,-4.1468,-4.1469,-4.152,-4.15,-4.1472,-4.1466,-4.147,-4.1487,-4.15,-4.1504,-4.1585,-4.1499,-4.1503,-4.1506,-4.1507,-4.1743,-4.1746,0,0,0,0,0,0,-4.1445,-4.1448,-4.1529,-4.1531,-4.1456,-4.1473,-4.1474,-4.1498,-4.15,-4.1497,-4.1473,-4.1466,-4.1495,-4.1499,-4.1504,-4.1616,-4.1504,-4.1508,-4.151,-4.1739,-4.1744,-4.1748,0,0,0,0,0,0,-4.1443,-4.1453,-4.1529,-4.1488,-4.1496,-4.1478,-4.1505,-4.15,-4.1513,-4.15,-4.1496,-4.1491,-4.1492,-4.1499,-4.1563,-4.1616,-4.151,-4.1513,-4.1735,-4.174,-4.1746,-4.1841,0,0,0,0,0,0,-4.144,-4.1453,-4.149,-4.149,-4.1499,-4.1588,-4.1508,-4.1503,-4.1521,-4.1512,-4.1516,-4.1513,-4.149,-4.1558,-4.1568,-4.1619,-4.1517,-4.173,-4.1737,-4.1744,-4.1833,-4.1849,-4.1863,0,0,0,0,0,-4.1436,-4.1516,-4.1492,-4.1502,-4.1545,-4.1591,-4.1596,-4.1569,-4.1525,-4.1562,-4.1553,-4.1513,-4.1608,-4.1565,-4.1575,-4.1629,-4.1726,-4.1735,-4.1743,-4.1826,-4.1846,-4.1862,0,0,0,0,0,0,-4.1522,-4.1515,-4.1489,-4.1571,-4.1582,-4.1578,-4.1623,-4.1591,-4.1615,-4.1606,-4.157,-4.1571,-4.1642,-4.1642,-4.1594,-4.1722,-4.166,-4.1671,-4.1719,-4.1738,-4.1752,-4.175,-4.152,0,0,0,0,0,-4.1551,-4.159,-4.1581,-4.1654,-4.1662,-4.1642,-4.1661,-4.1639,-4.1649,-4.1654,-4.165,-4.1661,-4.1693,-4.1716,-4.1745,-4.1832,-4.1831,-4.1874,-4.1889,-4.1902,-4.1911,-4.1956,-4.1975,-4.1775,-4.1775,-4.1775,0,0,-4.161,-4.1611,-4.1638,-4.1672,-4.1678,-4.1718,-4.1646,-4.1693,-4.1722,-4.166,-4.1721,-4.1719,-4.1729,-4.1806,-4.1839,-4.1808,-4.1966,-4.1912,-4.1922,-4.1925,-4.1967,-4.1986,-4.2003,-4.1781,-4.178,-4.1779,0,0,-4.1739,-4.1744,-4.1804,-4.1812,-4.1823,-4.1809,-4.1824,-4.1824,-4.182,-4.1881,-4.1835,-4.1869,-4.1926,-4.1935,-4.1947,-4.2077,-4.2041,-4.2088,-4.2166,-4.221,-4.2225,-4.2239,-4.2285,-4.2302,-4.2098,-4.2098,-4.2098,0,-4.1811,-4.1871,-4.184,-4.1889,-4.1904,-4.1851,-4.1911,-4.192,-4.194,-4.1951,-4.1916,-4.1985,-4.1988,-4.2065,-4.2097,-4.2109,-4.2124,-4.2087,-4.2226,-4.2239,-4.2252,-4.2295,-4.2312,-4.2104,-4.2103,-4.2102,-4.2102,0,-4.1958,-4.2,-4.2048,-4.2068,-4.2089,-4.2144,-4.212,-4.2145,-4.2121,-4.211,-4.2172,-4.2174,-4.2201,-4.2218,-4.2195,-4.2292,-4.2272,-4.2232,-4.2169,-4.2277,-4.2316,-4.2333,-4.2112,-4.211,-4.2108,-4.2107,0,0,-4.2142,-4.2143,-4.2161,-4.2169,-4.2176,-4.2208,-4.226,-4.2287,-4.2308,-4.2324,-4.2365,-4.2414,-4.2377,-4.239,-4.2368,-4.2407,-4.2508,-4.2361,-4.2361,-4.2388,-4.2613,-4.2643,-4.2663,-4.2484,-4.2487,-4.249,-4.2612,0,-4.2267,-4.2356,-4.2329,-4.2418,-4.2455,-4.2404,-4.2449,-4.2458,-4.2449,-4.2479,-4.247,-4.2505,-4.2453,-4.2461,-4.2497,-4.2488,-4.2553,-4.2479,-4.2522,-4.2524,-4.252,-4.2683,-4.2715,-4.2831,-4.2628,-4.263,-4.2632,0,-4.2425,-4.2446,-4.2539,-4.2539,-4.2553,-4.2594,-4.2616,-4.2646,-4.2655,-4.2646,-4.2661,-4.2629,-4.2679,-4.2616,-4.2683,-4.2634,-4.2649,-4.2648,-4.2651,-4.2654,-4.2584,-4.2689,-4.2867,-4.2884,-4.2657,-4.2655,-4.2653,0,-4.2548,-4.26,-4.2662,-4.267,-4.2672,-4.2701,-4.2703,-4.2708,-4.2726,-4.2745,-4.2756,-4.2781,-4.2795,-4.2815,-4.279,-4.2747,-4.2861,-4.2796,-4.2854,-4.2855,-4.2879,-4.2878,-4.3061,-4.2891,-4.2891,-4.2891,-4.289,0,-4.2691,-4.2749,-4.2717,-4.2755,-4.2818,-4.2786,-4.285,-4.2846,-4.2851,-4.2886,-4.2844,-4.2878,-4.2844,-4.2875,-4.2857,-4.2915,-4.2921,-4.2915,-4.2909,-4.2918,-4.2919,-4.2927,-4.2918,-4.2895,-4.2894,-4.2894,-4.2893,0,-4.2839,-4.282,-4.2883,-4.2879,-4.288,-4.2926,-4.2922,-4.2957,-4.2945,-4.2991,-4.2999,-4.2981,-4.3015,-4.2993,-4.3027,-4.3015,-4.309,-4.3073,-4.3087,-4.3082,-4.3141,-4.3135,-4.3335,-4.3359,-4.3175,-4.3177,-4.3178,0,-4.293,-4.2974,-4.2974,-4.2995,-4.3,-4.3034,-4.3052,-4.3022,-4.3042,-4.3055,-4.3087,-4.3118,-4.314,-4.3197,-4.3186,-4.3212,-4.3195,-4.3263,-4.3199,-4.3206,-4.3195,-4.3192,-4.3196,-4.3276,-4.3279,-4.328,-4.3282,0,-4.3095,-4.3083,-4.311,-4.3134,-4.3157,-4.3174,-4.3188,-4.3207,-4.3177,-4.3202,-4.3236,-4.3254,-4.3289,-4.3319,-4.334,-4.3341,-4.3307,-4.3302,-4.3317,-4.3326,-4.3332,-4.3328,-4.3122,-4.3298,-4.3296,-4.3295,-4.3294,-4.3293,-4.3216,-4.3252,-4.3258,-4.329,-4.3297,-4.3311,-4.3342,-4.3334,-4.3362,-4.3388,-4.3369,-4.341,-4.3416,-4.3441,-4.3446,-4.3477,-4.3449,-4.347,-4.3475,-4.3481,-4.3488,-4.3328,-4.3481,-4.348,-4.348,-4.3479,-4.3479,0,-4.3377,-4.3378,-4.3408,-4.3428,-4.3453,-4.3418,-4.3432,-4.3454,-4.3491,-4.3499,-4.3522,-4.3561,-4.359,-4.3582,-4.3607,-4.3633,-4.3618,-4.3641,-4.3638,-4.3639,-4.3512,-4.3497,-4.3653,-4.3653,-4.3653,-4.3653,-4.3653,-4.3653,-4.3464,-4.3523,-4.3511,-4.3572,-4.3573,-4.3612,-4.3622,-4.3635,-4.3641,-4.3687,-4.371,-4.3705,-4.3706,-4.3731,-4.3756,-4.3753,-4.3764,-4.3792,-4.3783,-4.3665,-4.3648,-4.3632,-4.3617,-4.3795,-4.3796,-4.3907,-4.3908,-4.3909]}]]